User: anonymous   Login
Location: Unspecified
(0.0000°N, 0.0000°E)
Time: 13:44:02
(UTC+00:00)
Language:

Nova 2 - Orbit

View from above orbital plane
View from above orbital plane
View from above satellite
View from above satellite

Ground track
Ground track

The orbit data is extracted from the following two-line orbital elements,

1 19223U 88052A   17114.93310642 +.00000027 +00000-0 +42067-4 0  9994
2 19223 089.9619 087.1678 0032398 065.3558 303.8741 13.22648913392554
Epoch (UTC): 24 April 2017 22:23:40
Eccentricity: 0.0032398
inclination: 89.9619°
perigee height: 1150 km
apogee height: 1199 km
right ascension of ascending node: 87.1678°
argument of perigee: 65.3558°
revolutions per day: 13.22648913
mean anomaly at epoch: 303.8741°
orbit number at epoch: 39255

The dashed part of the orbit path shows where the satellite is in the earth's shadow,  

DLR